This is the latest recevied weather packets stored in our database for station/object KH6DH-13. If no packets are shown the sender has not sent any weather packets the latest 10 day(s).
| Time | Temp. | Humidity | Pressure | Rain* | Wind** | Luminosity | Snow |
|---|---|---|---|---|---|---|---|
| 1777899960 | 22.78° C | - | - | 0 mm | 0.45 m/s, 46° | - | - |
| 1777899359 | 22.22° C | - | - | 0 mm | 0.45 m/s, 75° | - | - |
| 1777898758 | 22.78° C | - | - | 0 mm | 0.89 m/s, 79° | - | - |
| 1777898157 | 22.22° C | - | - | 0 mm | 1.34 m/s, 104° | - | - |
| 1777897556 | 22.78° C | - | - | 0 mm | 0 m/s | - | - |
| 1777896955 | 22.78° C | - | - | 0 mm | 0 m/s | - | - |
| 1777896354 | 22.22° C | - | - | 0 mm | 0 m/s | - | - |
| 1777895753 | 22.78° C | - | - | 0 mm | 0.89 m/s, 56° | - | - |
| 1777895152 | 22.78° C | - | - | 0 mm | 0.89 m/s, 290° | - | - |
| 1777894551 | 22.78° C | - | - | 0 mm | 0.89 m/s, 127° | - | - |
| 1777893950 | 22.78° C | - | - | 0 mm | 0.45 m/s, 91° | - | - |
| 1777893349 | 22.78° C | - | - | 0 mm | 0.45 m/s, 233° | - | - |
| 1777892748 | 22.78° C | - | - | 0 mm | 0.89 m/s, 113° | - | - |
| 1777892147 | 22.78° C | - | - | 0 mm | 0 m/s | - | - |
| 1777891546 | 22.22° C | - | - | 0 mm | 0.89 m/s, 24° | - | - |
| 1777890945 | 23.33° C | - | - | 0 mm | 0 m/s | - | - |
| 1777890344 | 23.33° C | - | - | 0.25 mm | 0 m/s | - | - |
| 1777889743 | 23.33° C | - | - | 0.25 mm | 0.45 m/s, 38° | - | - |
| 1777889142 | 22.78° C | - | - | 0.25 mm | 0.45 m/s, 127° | - | - |
| 1777888541 | 22.78° C | - | - | 0.25 mm | 0 m/s | - | - |
| 1777887940 | 22.78° C | - | - | 0.25 mm | 0 m/s | - | - |
| 1777887339 | 22.78° C | - | - | 0.25 mm | 0.89 m/s, 98° | - | - |
| 1777886738 | 22.78° C | - | - | 0 mm | 0.45 m/s, 129° | - | - |
| 1777886137 | 22.78° C | - | - | 0 mm | 0.89 m/s, 21° | - | - |
| 1777885536 | 23.33° C | - | - | 0 mm | 1.34 m/s, 73° | - | - |
* Rain latest hour (hover to see other rain measurements)
** Current wind speed in m/s (hover to see current wind gust speed)